When you browse on this site, cookies collect data to enhance your experience and personalize the content and advertising you see.
Visit our Privacy Policy to learn more. By continuing to use the site, you agree to this use of cookies and data.
  • In United Kingdom
  • List of Countries
  • For 7 days
  • Water Temperature
  • Satellite Maps
  • Weather Map
  • Weather Widgets
  • user-avatar
    Login

    Hourly Weather Wavre

    Today, 15 July, Monday

    Time Temperature Precipitation Wind Pressure Humidity
    00:00 +12°C° 0 mm 2 mps 759 mmHg 93%
    01:00 +12°C° 0 mm 2 mps 759 mmHg 93%
    02:00 +12°C° 0 mm 2 mps 759 mmHg 93%
    03:00 +10°C° 0 mm 2 mps 759 mmHg 93%
    04:00 +12°C° 0 mm 1 mps 759 mmHg 89%
    05:00 +13°C° 0 mm 1 mps 759 mmHg 85%
    06:00 +14°C° 0 mm 1 mps 759 mmHg 82%
    07:00 +15°C° 0 mm 1 mps 759 mmHg 78%
    08:00 +16°C° 0 mm 2 mps 759 mmHg 73%
    09:00 +17°C° 0 mm 2 mps 759 mmHg 69%
    10:00 +17°C° 0 mm 3 mps 759 mmHg 67%
    11:00 +18°C° 0 mm 3 mps 759 mmHg 65%
    12:00 +19°C° 0 mm 2 mps 759 mmHg 64%
    13:00 +19°C° 0 mm 3 mps 759 mmHg 63%
    14:00 +19°C° 0 mm 3 mps 759 mmHg 61%
    15:00 +20°C° 0 mm 3 mps 759 mmHg 60%
    16:00 +19°C° 0 mm 3 mps 759 mmHg 63%
    17:00 +19°C° 0 mm 4 mps 759 mmHg 66%
    18:00 +18°C° 0 mm 4 mps 758 mmHg 69%
    19:00 +17°C° 0 mm 3 mps 759 mmHg 73%
    20:00 +16°C° 0 mm 3 mps 759 mmHg 77%
    21:00 +14°C° 0 mm 2 mps 759 mmHg 81%
    22:00 +14°C° 0 mm 2 mps 759 mmHg 83%
    23:00 +14°C° 0 mm 2 mps 759 mmHg 85%

    Tomorrow, 16 July, Tuesday

    Time Temperature Precipitation Wind Pressure Humidity
    00:00 +13°C° 0 mm 1 mps 759 mmHg 87%
    01:00 +13°C° 0 mm 1 mps 759 mmHg 88%
    02:00 +12°C° 0 mm 1 mps 759 mmHg 89%
    03:00 +12°C° 0 mm 1 mps 759 mmHg 91%
    04:00 +13°C° 0 mm 1 mps 759 mmHg 88%
    05:00 +14°C° 0 mm 1 mps 759 mmHg 85%
    06:00 +14°C° 0 mm 0 mps 759 mmHg 82%
    07:00 +15°C° 0 mm 1 mps 759 mmHg 77%
    08:00 +16°C° 0 mm 1 mps 759 mmHg 73%
    09:00 +17°C° 0 mm 2 mps 759 mmHg 69%
    10:00 +19°C° 0 mm 1 mps 759 mmHg 65%
    11:00 +21°C° 0 mm 1 mps 758 mmHg 61%
    12:00 +20°C° 0 mm 0 mps 758 mmHg 57%
    13:00 +23°C° 0 mm 1 mps 758 mmHg 54%
    14:00 +23°C° 0 mm 1 mps 758 mmHg 52%
    15:00 +24°C° 0 mm 1 mps 757 mmHg 49%
    16:00 +24°C° 0 mm 1 mps 757 mmHg 53%
    17:00 +23°C° 0 mm 1 mps 757 mmHg 56%
    18:00 +23°C° 0 mm 2 mps 757 mmHg 60%
    19:00 +20°C° 0 mm 2 mps 757 mmHg 67%
    20:00 +17°C° 0 mm 2 mps 757 mmHg 75%
    21:00 +15°C° 0 mm 2 mps 757 mmHg 83%
    22:00 +15°C° 0 mm 2 mps 757 mmHg 85%
    23:00 +14°C° 0 mm 1 mps 757 mmHg 87%

    Day after tomorrow, 17 July, Wednesday

    Time Temperature Precipitation Wind Pressure Humidity
    00:00 +13°C° 0 mm 1 mps 757 mmHg 89%
    01:00 +13°C° 0 mm 1 mps 757 mmHg 90%
    02:00 +12°C° 0 mm 0 mps 756 mmHg 90%
    03:00 +11°C° 0 mm 0 mps 756 mmHg 91%
    04:00 +12°C° 0 mm 0 mps 756 mmHg 89%
    05:00 +13°C° 0 mm 0 mps 756 mmHg 86%
    06:00 +14°C° 0 mm 0 mps 756 mmHg 84%
    07:00 +16°C° 0 mm 0 mps 756 mmHg 77%
    08:00 +18°C° 0 mm 0 mps 756 mmHg 70%
    09:00 +20°C° 0 mm 0 mps 756 mmHg 63%
    10:00 +21°C° 0 mm 0 mps 755 mmHg 58%
    11:00 +25°C° 0 mm 1 mps 755 mmHg 52%
    12:00 +26°C° 0 mm 1 mps 755 mmHg 47%
    13:00 +26°C° 0 mm 1 mps 755 mmHg 46%
    14:00 +26°C° 0 mm 1 mps 754 mmHg 44%
    15:00 +26°C° 0 mm 1 mps 754 mmHg 43%
    16:00 +25°C° 0 mm 1 mps 754 mmHg 49%
    17:00 +25°C° 0 mm 1 mps 754 mmHg 53%
    18:00 +24°C° 0 mm 1 mps 754 mmHg 57%
    19:00 +23°C° 0 mm 1 mps 754 mmHg 60%
    20:00 +21°C° 0 mm 1 mps 754 mmHg 63%
    21:00 +20°C° 0 mm 1 mps 754 mmHg 66%
    22:00 +19°C° 0 mm 1 mps 754 mmHg 67%
    23:00 +19°C° 0 mm 1 mps 753 mmHg 69%

    18 July, Thursday

    Time Temperature Precipitation Wind Pressure Humidity
    00:00 +17°C° 0 mm 2 mps 753 mmHg 70%
    01:00 +17°C° 0 mm 2 mps 753 mmHg 72%
    02:00 +17°C° 0 mm 2 mps 753 mmHg 75%
    03:00 +16°C° 0 mm 2 mps 753 mmHg 77%
    04:00 +16°C° 0 mm 2 mps 753 mmHg 76%
    05:00 +17°C° 0 mm 2 mps 753 mmHg 76%
    06:00 +17°C° 0 mm 3 mps 753 mmHg 75%
    07:00 +18°C° 0 mm 3 mps 753 mmHg 68%
    08:00 +20°C° 0 mm 3 mps 753 mmHg 60%
    09:00 +21°C° 0 mm 4 mps 753 mmHg 53%
    10:00 +22°C° 0 mm 4 mps 753 mmHg 52%
    11:00 +23°C° 0 mm 4 mps 752 mmHg 50%
    12:00 +25°C° 0 mm 4 mps 752 mmHg 49%
    13:00 +25°C° 0 mm 5 mps 752 mmHg 50%
    14:00 +25°C° 0 mm 5 mps 752 mmHg 52%
    15:00 +23°C° 0 mm 5 mps 752 mmHg 53%
    16:00 +23°C° 0.2 mm 4 mps 752 mmHg 59%
    17:00 +22°C° 0.2 mm 4 mps 752 mmHg 65%
    18:00 +21°C° 0.2 mm 4 mps 752 mmHg 71%
    19:00 +20°C° 0 mm 3 mps 752 mmHg 74%
    20:00 +19°C° 0 mm 3 mps 752 mmHg 78%
    21:00 +18°C° 0 mm 3 mps 752 mmHg 81%
    22:00 +18°C° 0.1 mm 3 mps 753 mmHg 84%
    23:00 +17°C° 0.1 mm 3 mps 753 mmHg 86%

    19 July, Friday

    Time Temperature Precipitation Wind Pressure Humidity
    00:00 +17°C° 0.1 mm 4 mps 753 mmHg 88%
    01:00 +15°C° 0 mm 4 mps 753 mmHg 90%
    02:00 +14°C° 0 mm 3 mps 753 mmHg 91%
    03:00 +13°C° 0 mm 3 mps 753 mmHg 93%
    04:00 +14°C° 0 mm 4 mps 753 mmHg 91%
    05:00 +14°C° 0 mm 4 mps 753 mmHg 90%
    06:00 +15°C° 0 mm 4 mps 754 mmHg 89%
    07:00 +17°C° 0 mm 3 mps 754 mmHg 81%
    08:00 +19°C° 0 mm 3 mps 754 mmHg 73%
    09:00 +21°C° 0 mm 3 mps 755 mmHg 64%
    10:00 +21°C° 0 mm 3 mps 755 mmHg 60%
    11:00 +22°C° 0 mm 3 mps 755 mmHg 56%
    12:00 +22°C° 0 mm 3 mps 755 mmHg 52%
    13:00 +24°C° 0 mm 3 mps 755 mmHg 52%
    14:00 +24°C° 0 mm 3 mps 755 mmHg 51%
    15:00 +24°C° 0 mm 3 mps 755 mmHg 50%
    16:00 +24°C° 0 mm 3 mps 755 mmHg 54%
    17:00 +23°C° 0 mm 2 mps 755 mmHg 57%
    18:00 +23°C° 0 mm 2 mps 755 mmHg 60%
    19:00 +20°C° 0 mm 2 mps 756 mmHg 65%
    20:00 +19°C° 0 mm 1 mps 756 mmHg 70%
    21:00 +16°C° 0 mm 1 mps 756 mmHg 75%
    22:00 +16°C° 0 mm 1 mps 756 mmHg 76%
    23:00 +16°C° 0 mm 2 mps 756 mmHg 77%

    20 July, Saturday

    Time Temperature Precipitation Wind Pressure Humidity
    00:00 +15°C° 0 mm 2 mps 756 mmHg 77%
    01:00 +15°C° 0 mm 2 mps 755 mmHg 78%
    02:00 +15°C° 0 mm 2 mps 755 mmHg 78%
    03:00 +14°C° 0 mm 3 mps 755 mmHg 78%
    04:00 +16°C° 0 mm 3 mps 755 mmHg 75%
    05:00 +17°C° 0 mm 4 mps 755 mmHg 72%
    06:00 +19°C° 0 mm 4 mps 755 mmHg 69%
    07:00 +20°C° 0.1 mm 4 mps 755 mmHg 68%
    08:00 +21°C° 0.1 mm 4 mps 755 mmHg 68%
    09:00 +22°C° 0.1 mm 5 mps 755 mmHg 67%
    10:00 +22°C° 0.1 mm 4 mps 755 mmHg 67%
    11:00 +23°C° 0.1 mm 4 mps 755 mmHg 66%
    12:00 +23°C° 0.1 mm 4 mps 755 mmHg 66%
    13:00 +25°C° 0.1 mm 4 mps 755 mmHg 62%
    14:00 +26°C° 0.1 mm 4 mps 756 mmHg 57%
    15:00 +27°C° 0.1 mm 4 mps 756 mmHg 53%
    16:00 +26°C° 0 mm 4 mps 756 mmHg 57%
    17:00 +26°C° 0 mm 3 mps 756 mmHg 61%
    18:00 +25°C° 0 mm 3 mps 756 mmHg 65%
    19:00 +23°C° 0 mm 2 mps 757 mmHg 71%
    20:00 +21°C° 0 mm 2 mps 757 mmHg 78%
    21:00 +20°C° 0 mm 1 mps 757 mmHg 85%
    22:00 +19°C° 0 mm 1 mps 757 mmHg 87%
    23:00 +18°C° 0 mm 2 mps 758 mmHg 88%
    Show more